Location: Bouchavesnes-Bergen
(49.9859°N, 2.9203°E)
Time: 03:30:33
(UTC+00:00)

USA 267 - Pass Details

Date: 09 March 2021
Orbit: 1099 x 1108 km, 123.0° (Epoch: 20 March)

Event Time Altitude Azimuth Distance (km) Brightness Sun altitude
Rises 05:08:13 0° 69° (ENE) 3,925 7.9 -11.5°
Reaches altitude 10° 05:10:46 10° 65° (ENE) 2,965 6.8 -11.1°
Maximum altitude 05:17:01 50° 352° (N) 1,371 3.8 -10.1°
Drops below altitude 10° 05:23:16 10° 280° (W) 2,959 4.9 -9.1°
Enters shadow 05:23:17 10° 279° (W) 2,965 4.9 -9.1°
